Location: Brunembert
(50.7122°N, 1.8935°E)
Time: 10:48:00
(UTC+00:00)

Resurs 01 Rocket - Pass Details

Date: 22 April 2021
Orbit: 634 x 644 km, 97.9° (Epoch: 16 May)

Event Time Altitude Azimuth Distance (km) Brightness Sun altitude
Exits shadow 20:46:10 11° 185° (S) 1,990 3.8 -15.1°
Maximum altitude 20:50:21 49° 261° (W) 831 2.4 -15.6°
Drops below altitude 10° 20:54:43 10° 336° (NNW) 2,054 5.3 -16.1°
Sets 20:57:00 0° 342° (NNW) 2,968 6.2 -16.3°
